{"data":{"norad_id":51469,"intl_designator":"2022-010P","name":"STARLINK-3182","alt_names":[],"object_type":"PAYLOAD","status":"ACTIVE","operator":null,"country":"US","launch_date":"2022-02-03","launch_site_code":"AFETR","launch_vehicle":null,"mission":null,"orbit_class":"UNKNOWN","rcs_meters":null,"size_class":null,"mass_kg":null,"dimensions":null,"purposes":["comms"],"wikipedia_slug":null,"has_3d_model":false,"image_url":null,"decayed_at":null,"tle_current":{"epoch":"2026-09-20T04:00:03.000096Z","epoch_age_seconds":77205,"freshness":"FRESH","line1":"1 51469U 22010P   26263.16670139 -.00008603  00000+0 -24377-3 0  9996","line2":"2 51469  53.1587 116.9855 0001338  82.2928 234.9367 15.34398499  5753","mean_motion":15.34398499,"eccentricity":0.0001338,"inclination_deg":53.1587,"raan_deg":116.9855,"arg_perigee_deg":82.2928,"mean_anomaly_deg":234.9367,"bstar":-0.00024377,"rev_number":575,"period_min":93.847849886355,"perigee_km":461.792396478,"apogee_km":463.62300652012,"semimajor_km":6840.8447014991,"source":"CELESTRAK","updated_at":"2026-09-20T09:00:39.595836Z"}}}